Time,TemperatureF,DewpointF,PressureIn,WindDirection,WindDirectionDegrees,WindSpeedMPH,WindSpeedGustMPH,Humidity,HourlyPrecipIn,Conditions,Clouds,dailyrainin,SoftwareType,DateUTC
2013-01-19 00:00:00,32.3,17.1,30.07,SW,230,8.0,14.0,53,0.00,,OVC100,0.00,VWS V14.01,2013-01-19 05:00:00,
2013-01-19 00:01:00,32.3,17.1,30.07,WSW,247,5.0,14.0,53,0.00,,OVC100,0.00,VWS V14.01,2013-01-19 05:01:00,
2013-01-19 00:02:00,32.3,17.5,30.07,WSW,242,10.0,14.0,54,0.00,,OVC100,0.00,VWS V14.01,2013-01-19 05:02:00,
2013-01-19 00:07:00,32.5,16.9,30.06,West,260,5.0,14.0,52,0.00,,OVC100,0.00,VWS V14.01,2013-01-19 05:07:00,
2013-01-19 00:12:00,32.7,17.5,30.06,WSW,252,7.0,14.0,53,0.00,,OVC100,0.00,VWS V14.01,2013-01-19 05:12:00,
2013-01-19 00:18:00,32.7,17.5,30.06,WSW,257,4.0,14.0,53,0.00,,OVC100,0.00,VWS V14.01,2013-01-19 05:18:00,
2013-01-19 00:23:00,32.8,17.6,30.06,WSW,246,8.0,14.0,53,0.00,,OVC100,0.00,VWS V14.01,2013-01-19 05:23:00,
2013-01-19 00:28:00,32.9,17.7,30.05,WSW,246,9.0,14.0,53,0.00,,OVC100,0.00,VWS V14.01,2013-01-19 05:28:00,
2013-01-19 00:33:00,33.2,17.0,30.05,WSW,245,7.0,11.0,51,0.00,,OVC100,0.00,VWS V14.01,2013-01-19 05:33:00,
2013-01-19 00:38:00,33.4,16.8,30.05,WSW,239,9.0,15.0,50,0.00,,OVC100,0.00,VWS V14.01,2013-01-19 05:38:00,
2013-01-19 00:43:00,33.6,17.0,30.05,WSW,242,7.0,15.0,50,0.00,,OVC100,0.00,VWS V14.01,2013-01-19 05:43:00,
2013-01-19 00:48:00,33.9,17.2,30.04,SW,231,10.0,15.0,50,0.00,,OVC100,0.00,VWS V14.01,2013-01-19 05:48:00,
2013-01-19 00:53:00,34.1,17.0,30.04,WSW,242,10.0,18.0,49,0.00,,OVC100,0.00,VWS V14.01,2013-01-19 05:53:00,
2013-01-19 00:58:00,34.3,16.7,30.04,SW,236,9.0,18.0,48,0.00,,OVC100,0.00,VWS V14.01,2013-01-19 05:58:00,
2013-01-19 01:03:00,34.5,17.3,30.04,WSW,245,8.0,12.0,49,0.00,,OVC100,0.00,VWS V14.01,2013-01-19 06:03:00,
2013-01-19 01:08:00,34.5,16.9,30.04,WSW,245,11.0,13.0,48,0.00,,OVC100,0.00,VWS V14.01,2013-01-19 06:08:00,
2013-01-19 01:14:00,34.7,17.0,30.04,SW,221,5.0,13.0,48,0.00,,OVC100,0.00,VWS V14.01,2013-01-19 06:14:00,
2013-01-19 01:19:00,34.8,17.1,30.04,West,271,9.0,13.0,48,0.00,,OVC100,0.00,VWS V14.01,2013-01-19 06:19:00,
2013-01-19 01:24:00,34.9,17.2,30.04,SW,232,8.0,13.0,48,0.00,,OVC100,0.00,VWS V14.01,2013-01-19 06:24:00,
2013-01-19 01:29:00,35.0,16.8,30.04,WSW,257,6.0,13.0,47,0.00,,OVC100,0.00,VWS V14.01,2013-01-19 06:29:00,
2013-01-19 01:34:00,35.2,17.5,30.04,WSW,245,10.0,13.0,48,0.00,,OVC100,0.00,VWS V14.01,2013-01-19 06:34:00,
2013-01-19 01:39:00,35.2,17.5,30.04,WSW,253,7.0,13.0,48,0.00,,OVC100,0.00,VWS V14.01,2013-01-19 06:39:00,
2013-01-19 01:44:00,35.2,17.5,30.04,WSW,248,7.0,13.0,48,0.00,,OVC100,0.00,VWS V14.01,2013-01-19 06:44:00,
2013-01-19 01:49:00,35.1,17.4,30.04,WSW,248,7.0,13.0,48,0.00,,OVC100,0.00,VWS V14.01,2013-01-19 06:49:00,
2013-01-19 01:54:00,35.3,17.1,30.04,SW,235,8.0,13.0,47,0.00,,OVC100,0.00,VWS V14.01,2013-01-19 06:54:00,
2013-01-19 01:59:00,35.2,17.5,30.04,WSW,242,7.0,13.0,48,0.00,,OVC100,0.00,VWS V14.01,2013-01-19 06:59:00,
2013-01-19 02:04:00,35.2,17.0,30.04,WSW,248,9.0,11.0,47,0.00,,OVC100,0.00,VWS V14.01,2013-01-19 07:04:00,
2013-01-19 02:10:00,35.2,17.5,30.04,SW,224,8.0,11.0,48,0.00,,OVC100,0.00,VWS V14.01,2013-01-19 07:10:00,
2013-01-19 02:15:00,35.3,18.1,30.04,WSW,252,9.0,11.0,49,0.00,,OVC100,0.00,VWS V14.01,2013-01-19 07:15:00,
2013-01-19 02:20:00,35.5,17.8,30.04,WSW,248,7.0,12.0,48,0.00,,OVC100,0.00,VWS V14.01,2013-01-19 07:20:00,
2013-01-19 02:25:00,35.4,18.1,30.04,WSW,253,5.0,12.0,49,0.00,,OVC100,0.00,VWS V14.01,2013-01-19 07:25:00,
2013-01-19 02:30:00,35.6,17.4,30.04,WSW,239,7.0,12.0,47,0.00,,OVC100,0.00,VWS V14.01,2013-01-19 07:30:00,
2013-01-19 02:35:00,35.7,17.5,30.04,SW,231,10.0,13.0,47,0.00,,OVC100,0.00,VWS V14.01,2013-01-19 07:35:00,
2013-01-19 02:40:00,35.8,18.0,30.04,WSW,250,10.0,14.0,48,0.00,,OVC100,0.00,VWS V14.01,2013-01-19 07:40:00,
2013-01-19 02:46:00,35.9,18.1,30.04,WSW,245,8.0,14.0,48,0.00,,OVC110,0.00,VWS V14.01,2013-01-19 07:46:00,
2013-01-19 02:51:00,35.8,18.0,30.04,SW,226,11.0,14.0,48,0.00,,OVC110,0.00,VWS V14.01,2013-01-19 07:51:00,
2013-01-19 02:56:00,36.0,17.2,30.04,WSW,252,6.0,14.0,46,0.00,,OVC110,0.00,VWS V14.01,2013-01-19 07:56:00,
2013-01-19 03:01:00,35.9,18.6,30.03,WSW,239,8.0,14.0,49,0.00,,OVC110,0.00,VWS V14.01,2013-01-19 08:01:00,
2013-01-19 03:06:00,36.1,17.8,30.03,WSW,238,14.0,14.0,47,0.00,,OVC110,0.00,VWS V14.01,2013-01-19 08:06:00,
2013-01-19 03:12:00,36.1,17.8,30.03,SW,233,7.0,15.0,47,0.00,,OVC110,0.00,VWS V14.01,2013-01-19 08:12:00,
2013-01-19 03:17:00,36.1,17.8,30.02,WSW,252,7.0,15.0,47,0.00,,OVC110,0.00,VWS V14.01,2013-01-19 08:17:00,
2013-01-19 03:22:00,36.1,17.8,30.02,WSW,250,10.0,15.0,47,0.00,,OVC110,0.00,VWS V14.01,2013-01-19 08:22:00,
2013-01-19 03:27:00,36.1,17.3,30.02,SW,236,10.0,16.0,46,0.00,,OVC110,0.00,VWS V14.01,2013-01-19 08:27:00,
2013-01-19 03:32:00,36.1,17.8,30.02,WSW,245,10.0,16.0,47,0.00,,OVC110,0.00,VWS V14.01,2013-01-19 08:32:00,
2013-01-19 03:37:00,36.0,17.7,30.02,SW,226,8.0,10.0,47,0.00,,OVC110,0.00,VWS V14.01,2013-01-19 08:37:00,
2013-01-19 03:42:00,36.1,17.8,30.02,WSW,253,6.0,13.0,47,0.00,,OVC110,0.00,VWS V14.01,2013-01-19 08:42:00,
2013-01-19 03:47:00,36.1,17.3,30.02,WSW,257,6.0,13.0,46,0.00,,FEW100,0.00,VWS V14.01,2013-01-19 08:47:00,
2013-01-19 03:52:00,36.2,18.4,30.01,SW,224,6.0,13.0,48,0.00,,FEW100,0.00,VWS V14.01,2013-01-19 08:52:00,
2013-01-19 03:57:00,36.2,18.4,30.02,WSW,250,4.0,13.0,48,0.00,,FEW100,0.00,VWS V14.01,2013-01-19 08:57:00,
2013-01-19 04:03:00,36.1,18.8,30.01,WSW,242,7.0,7.0,49,0.00,,FEW100,0.00,VWS V14.01,2013-01-19 09:03:00,
2013-01-19 04:08:00,36.1,18.8,30.01,SW,232,5.0,12.0,49,0.00,,FEW100,0.00,VWS V14.01,2013-01-19 09:08:00,
2013-01-19 04:13:00,36.0,18.7,30.01,WSW,248,9.0,12.0,49,0.00,,FEW100,0.00,VWS V14.01,2013-01-19 09:13:00,
2013-01-19 04:18:00,36.1,18.8,30.01,SW,235,6.0,12.0,49,0.00,,FEW100,0.00,VWS V14.01,2013-01-19 09:18:00,
2013-01-19 04:23:00,36.2,19.4,30.01,WSW,245,6.0,12.0,50,0.00,,FEW100,0.00,VWS V14.01,2013-01-19 09:23:00,
2013-01-19 04:28:00,36.3,19.0,30.01,SW,236,3.0,12.0,49,0.00,,FEW100,0.00,VWS V14.01,2013-01-19 09:28:00,
2013-01-19 04:33:00,36.3,19.0,30.01,West,259,4.0,7.0,49,0.00,,FEW100,0.00,VWS V14.01,2013-01-19 09:33:00,
2013-01-19 04:38:00,36.5,19.6,30.00,WSW,238,5.0,10.0,50,0.00,,FEW100,0.00,VWS V14.01,2013-01-19 09:38:00,
2013-01-19 04:44:00,36.5,19.6,30.00,West,273,5.0,10.0,50,0.00,,FEW100,0.00,VWS V14.01,2013-01-19 09:44:00,
2013-01-19 04:49:00,36.5,19.6,30.00,WSW,250,4.0,10.0,50,0.00,,CLR,0.00,VWS V14.01,2013-01-19 09:49:00,
2013-01-19 04:54:00,36.6,20.2,30.00,WSW,250,6.0,10.0,51,0.00,,CLR,0.00,VWS V14.01,2013-01-19 09:54:00,
2013-01-19 04:59:00,36.7,20.3,30.00,SW,231,8.0,10.0,51,0.00,,CLR,0.00,VWS V14.01,2013-01-19 09:59:00,
2013-01-19 05:04:00,36.9,20.5,30.00,WSW,242,3.0,6.0,51,0.00,,CLR,0.00,VWS V14.01,2013-01-19 10:04:00,
2013-01-19 05:09:00,37.0,20.6,30.00,WSW,255,5.0,10.0,51,0.00,,CLR,0.00,VWS V14.01,2013-01-19 10:09:00,
2013-01-19 05:14:00,37.2,20.3,29.99,West,259,5.0,12.0,50,0.00,,CLR,0.00,VWS V14.01,2013-01-19 10:14:00,
2013-01-19 05:19:00,37.4,20.5,30.00,WSW,242,7.0,12.0,50,0.00,,CLR,0.00,VWS V14.01,2013-01-19 10:19:00,
2013-01-19 05:25:00,37.4,21.4,30.00,WSW,238,4.0,12.0,52,0.00,,CLR,0.00,VWS V14.01,2013-01-19 10:25:00,
2013-01-19 05:30:00,37.6,21.1,29.99,WSW,245,8.0,12.0,51,0.00,,CLR,0.00,VWS V14.01,2013-01-19 10:30:00,
2013-01-19 05:35:00,37.8,21.3,29.99,WSW,241,5.0,10.0,51,0.00,,CLR,0.00,VWS V14.01,2013-01-19 10:35:00,
2013-01-19 05:40:00,37.6,21.1,29.99,WSW,244,12.0,12.0,51,0.00,,CLR,0.00,VWS V14.01,2013-01-19 10:40:00,
2013-01-19 05:45:00,37.5,21.0,29.99,WSW,242,7.0,12.0,51,0.00,,CLR,0.00,VWS V14.01,2013-01-19 10:45:00,
2013-01-19 05:50:00,37.3,20.9,29.99,WSW,248,5.0,12.0,51,0.00,,CLR,0.00,VWS V14.01,2013-01-19 10:50:00,
2013-01-19 05:55:00,37.3,20.9,29.99,SW,233,8.0,12.0,51,0.00,,CLR,0.00,VWS V14.01,2013-01-19 10:55:00,
2013-01-19 06:00:00,37.1,21.1,29.99,SW,232,6.0,12.0,52,0.00,,CLR,0.00,VWS V14.01,2013-01-19 11:00:00,
2013-01-19 06:05:00,37.0,21.0,30.00,WSW,246,8.0,10.0,52,0.00,,CLR,0.00,VWS V14.01,2013-01-19 11:05:00,
2013-01-19 06:10:00,37.0,21.0,29.99,SW,219,10.0,10.0,52,0.00,,CLR,0.00,VWS V14.01,2013-01-19 11:10:00,
2013-01-19 07:48:00,37.0,21.9,29.98,WSW,248,6.0,11.0,54,0.00,,CLR,0.00,VWS V14.01,2013-01-19 12:48:00,
2013-01-19 07:53:00,37.0,22.4,29.98,WSW,245,6.0,11.0,55,0.00,,CLR,0.00,VWS V14.01,2013-01-19 12:53:00,
2013-01-19 07:58:00,37.2,22.5,29.98,WSW,242,7.0,11.0,55,0.00,,CLR,0.00,VWS V14.01,2013-01-19 12:58:00,
2013-01-19 08:04:00,37.5,22.8,29.98,WSW,239,5.0,10.0,55,0.00,,CLR,0.00,VWS V14.01,2013-01-19 13:04:00,
2013-01-19 08:09:00,37.6,22.9,29.98,WSW,239,6.0,10.0,55,0.00,,CLR,0.00,VWS V14.01,2013-01-19 13:09:00,
2013-01-19 08:14:00,37.8,23.1,29.98,WSW,242,6.0,11.0,55,0.00,,CLR,0.00,VWS V14.01,2013-01-19 13:14:00,
2013-01-19 08:19:00,37.8,23.1,29.98,WSW,245,8.0,11.0,55,0.00,,CLR,0.00,VWS V14.01,2013-01-19 13:19:00,
2013-01-19 08:24:00,38.0,23.3,29.98,SW,232,8.0,11.0,55,0.00,,CLR,0.00,VWS V14.01,2013-01-19 13:24:00,
2013-01-19 08:29:00,38.1,23.4,29.98,WSW,248,8.0,11.0,55,0.00,,CLR,0.00,VWS V14.01,2013-01-19 13:29:00,
2013-01-19 08:34:00,38.4,23.2,29.98,SW,236,9.0,11.0,54,0.00,,CLR,0.00,VWS V14.01,2013-01-19 13:34:00,
2013-01-19 08:39:00,38.5,23.8,29.98,SW,236,7.0,11.0,55,0.00,,CLR,0.00,VWS V14.01,2013-01-19 13:39:00,
2013-01-19 08:45:00,38.7,23.5,29.98,WSW,249,6.0,11.0,54,0.00,,CLR,0.00,VWS V14.01,2013-01-19 13:45:00,
2013-01-19 08:50:00,38.8,24.0,29.98,West,266,6.0,12.0,55,0.00,,CLR,0.00,VWS V14.01,2013-01-19 13:50:00,
2013-01-19 08:55:00,39.1,23.9,29.98,WSW,248,9.0,12.0,54,0.00,,CLR,0.00,VWS V14.01,2013-01-19 13:55:00,
2013-01-19 09:00:00,39.5,24.2,29.98,WSW,240,6.0,12.0,54,0.00,,CLR,0.00,VWS V14.01,2013-01-19 14:00:00,
2013-01-19 09:05:00,40.0,24.7,29.98,SW,231,9.0,10.0,54,0.00,,CLR,0.00,VWS V14.01,2013-01-19 14:05:00,
2013-01-19 09:10:00,40.3,25.0,29.98,WSW,239,6.0,10.0,54,0.00,,CLR,0.00,VWS V14.01,2013-01-19 14:10:00,
2013-01-19 09:15:00,40.8,24.5,29.98,WSW,245,6.0,11.0,52,0.00,,CLR,0.00,VWS V14.01,2013-01-19 14:15:00,
2013-01-19 09:21:00,41.1,25.7,29.99,WSW,239,10.0,13.0,54,0.00,,CLR,0.00,VWS V14.01,2013-01-19 14:21:00,
2013-01-19 09:26:00,41.3,25.5,29.98,West,259,7.0,13.0,53,0.00,,CLR,0.00,VWS V14.01,2013-01-19 14:26:00,
2013-01-19 09:31:00,41.5,25.2,29.99,WSW,248,6.0,13.0,52,0.00,,CLR,0.00,VWS V14.01,2013-01-19 14:31:00,
2013-01-19 09:36:00,41.6,25.8,29.99,West,260,6.0,15.0,53,0.00,,CLR,0.00,VWS V14.01,2013-01-19 14:36:00,
2013-01-19 09:41:00,41.7,25.4,29.99,WSW,256,7.0,15.0,52,0.00,,CLR,0.00,VWS V14.01,2013-01-19 14:41:00,
2013-01-19 09:46:00,41.8,26.4,29.99,West,274,5.0,15.0,54,0.00,,CLR,0.00,VWS V14.01,2013-01-19 14:46:00,
2013-01-19 09:52:00,42.0,26.1,29.99,WNW,284,9.0,15.0,53,0.00,,CLR,0.00,VWS V14.01,2013-01-19 14:52:00,
2013-01-19 09:57:00,42.1,26.7,29.99,WSW,257,6.0,15.0,54,0.00,,CLR,0.00,VWS V14.01,2013-01-19 14:57:00,
2013-01-19 10:02:00,42.1,26.2,30.00,SW,236,10.0,15.0,53,0.00,,CLR,0.00,VWS V14.01,2013-01-19 15:02:00,
2013-01-19 10:07:00,42.0,26.6,30.00,WSW,248,7.0,13.0,54,0.00,,CLR,0.00,VWS V14.01,2013-01-19 15:07:00,
2013-01-19 10:12:00,42.2,26.3,29.99,West,266,5.0,13.0,53,0.00,,CLR,0.00,VWS V14.01,2013-01-19 15:12:00,
2013-01-19 10:17:00,42.3,26.9,29.99,WSW,240,6.0,13.0,54,0.00,,CLR,0.00,VWS V14.01,2013-01-19 15:17:00,
2013-01-19 10:22:00,42.4,27.4,29.99,West,259,8.0,13.0,55,0.00,,CLR,0.00,VWS V14.01,2013-01-19 15:22:00,
2013-01-19 10:27:00,42.6,27.1,29.99,WSW,245,7.0,13.0,54,0.00,,CLR,0.00,VWS V14.01,2013-01-19 15:27:00,
2013-01-19 10:32:00,42.8,27.3,29.99,WSW,249,5.0,13.0,54,0.00,,CLR,0.00,VWS V14.01,2013-01-19 15:32:00,
2013-01-19 10:37:00,42.8,27.3,29.99,WSW,249,6.0,11.0,54,0.00,,CLR,0.00,VWS V14.01,2013-01-19 15:37:00,
2013-01-19 10:42:00,42.9,27.0,29.99,West,259,5.0,12.0,53,0.00,,CLR,0.00,VWS V14.01,2013-01-19 15:42:00,
2013-01-19 10:47:00,42.9,27.0,29.99,WSW,252,4.0,12.0,53,0.00,,CLR,0.00,VWS V14.01,2013-01-19 15:47:00,
2013-01-19 10:52:00,42.9,27.0,29.99,West,259,7.0,12.0,53,0.00,,CLR,0.00,VWS V14.01,2013-01-19 15:52:00,
2013-01-19 10:57:00,43.0,27.0,29.98,WSW,239,8.0,13.0,53,0.00,,CLR,0.00,VWS V14.01,2013-01-19 15:57:00,
2013-01-19 11:03:00,43.1,27.6,29.98,WSW,241,4.0,7.0,54,0.00,,CLR,0.00,VWS V14.01,2013-01-19 16:03:00,
2013-01-19 11:08:00,43.2,28.1,29.98,West,273,7.0,10.0,55,0.00,,CLR,0.00,VWS V14.01,2013-01-19 16:08:00,
2013-01-19 11:13:00,43.3,27.8,29.97,West,264,8.0,12.0,54,0.00,,CLR,0.00,VWS V14.01,2013-01-19 16:13:00,
2013-01-19 11:18:00,43.4,27.9,29.97,West,280,5.0,13.0,54,0.00,,CLR,0.00,VWS V14.01,2013-01-19 16:18:00,
2013-01-19 11:23:00,43.5,28.0,29.97,WSW,248,9.0,13.0,54,0.00,,CLR,0.00,VWS V14.01,2013-01-19 16:23:00,
2013-01-19 11:28:00,43.7,28.2,29.96,West,275,9.0,14.0,54,0.00,,CLR,0.00,VWS V14.01,2013-01-19 16:28:00,
2013-01-19 11:33:00,43.8,28.7,29.96,WSW,248,10.0,11.0,55,0.00,,CLR,0.00,VWS V14.01,2013-01-19 16:33:00,
2013-01-19 11:38:00,44.0,28.9,29.95,West,264,9.0,12.0,55,0.00,,CLR,0.00,VWS V14.01,2013-01-19 16:38:00,
2013-01-19 11:43:00,44.3,29.2,29.95,West,259,8.0,14.0,55,0.00,,CLR,0.00,VWS V14.01,2013-01-19 16:43:00,
2013-01-19 11:49:00,44.4,29.3,29.95,WSW,242,16.0,17.0,55,0.00,,CLR,0.00,VWS V14.01,2013-01-19 16:49:00,
2013-01-19 11:54:00,44.3,28.3,29.95,West,263,6.0,17.0,53,0.00,,CLR,0.00,VWS V14.01,2013-01-19 16:54:00,
2013-01-19 11:59:00,44.4,28.8,29.94,WNW,292,7.0,17.0,54,0.00,,CLR,0.00,VWS V14.01,2013-01-19 16:59:00,
2013-01-19 12:04:00,44.7,29.1,29.94,West,259,8.0,13.0,54,0.00,,CLR,0.00,VWS V14.01,2013-01-19 17:04:00,
2013-01-19 12:09:00,45.1,29.5,29.94,WSW,248,11.0,14.0,54,0.00,,CLR,0.00,VWS V14.01,2013-01-19 17:09:00,
2013-01-19 12:14:00,45.4,29.7,29.94,WSW,245,8.0,14.0,54,0.00,,CLR,0.00,VWS V14.01,2013-01-19 17:14:00,
2013-01-19 12:20:00,45.7,30.5,29.94,WSW,248,8.0,14.0,55,0.00,,CLR,0.00,VWS V14.01,2013-01-19 17:20:00,
2013-01-19 12:25:00,45.6,29.0,29.94,West,259,5.0,14.0,52,0.00,,CLR,0.00,VWS V14.01,2013-01-19 17:25:00,
2013-01-19 12:30:00,45.4,29.3,29.94,West,268,8.0,14.0,53,0.00,,CLR,0.00,VWS V14.01,2013-01-19 17:30:00,
2013-01-19 12:35:00,45.2,29.1,29.94,WSW,244,6.0,11.0,53,0.00,,CLR,0.00,VWS V14.01,2013-01-19 17:35:00,
2013-01-19 12:40:00,45.3,30.5,29.94,West,259,4.0,11.0,56,0.00,,CLR,0.00,VWS V14.01,2013-01-19 17:40:00,
2013-01-19 12:46:00,45.5,29.4,29.94,WSW,250,4.0,11.0,53,0.00,,CLR,0.00,VWS V14.01,2013-01-19 17:46:00,
2013-01-19 12:51:00,45.4,28.8,29.93,WSW,244,7.0,11.0,52,0.00,,CLR,0.00,VWS V14.01,2013-01-19 17:51:00,
2013-01-19 12:56:00,45.5,30.3,29.93,WSW,248,4.0,11.0,55,0.00,,CLR,0.00,VWS V14.01,2013-01-19 17:56:00,
2013-01-19 13:01:00,45.5,29.4,29.93,West,271,3.0,14.0,53,0.00,,CLR,0.00,VWS V14.01,2013-01-19 18:01:00,
2013-01-19 13:07:00,45.7,30.0,29.93,West,266,6.0,9.0,54,0.00,,CLR,0.00,VWS V14.01,2013-01-19 18:07:00,
2013-01-19 13:12:00,46.0,30.3,29.93,WSW,257,4.0,9.0,54,0.00,,CLR,0.00,VWS V14.01,2013-01-19 18:12:00,
2013-01-19 13:17:00,46.1,29.5,29.93,West,270,4.0,9.0,52,0.00,,CLR,0.00,VWS V14.01,2013-01-19 18:17:00,
2013-01-19 13:23:00,46.3,30.6,29.92,WSW,253,8.0,12.0,54,0.00,,CLR,0.00,VWS V14.01,2013-01-19 18:23:00,
2013-01-19 13:28:00,46.1,30.4,29.92,WSW,248,5.0,12.0,54,0.00,,CLR,0.00,VWS V14.01,2013-01-19 18:28:00,
2013-01-19 13:34:00,45.9,29.8,29.92,WSW,240,6.0,10.0,53,0.00,,CLR,0.00,VWS V14.01,2013-01-19 18:34:00,
2013-01-19 13:39:00,45.9,30.2,29.92,WSW,256,4.0,10.0,54,0.00,,CLR,0.00,VWS V14.01,2013-01-19 18:39:00,
2013-01-19 13:44:00,45.9,29.8,29.92,West,278,5.0,11.0,53,0.00,,CLR,0.00,VWS V14.01,2013-01-19 18:44:00,
2013-01-19 13:49:00,45.9,30.2,29.92,WSW,244,6.0,11.0,54,0.00,,CLR,0.00,VWS V14.01,2013-01-19 18:49:00,
2013-01-19 13:54:00,45.9,31.1,29.92,WSW,252,6.0,11.0,56,0.00,,CLR,0.00,VWS V14.01,2013-01-19 18:54:00,
2013-01-19 13:59:00,46.0,30.3,29.92,WSW,245,8.0,11.0,54,0.00,,CLR,0.00,VWS V14.01,2013-01-19 18:59:00,
2013-01-19 14:04:00,46.0,29.8,29.91,West,264,5.0,6.0,53,0.00,,CLR,0.00,VWS V14.01,2013-01-19 19:04:00,
2013-01-19 14:09:00,46.1,30.4,29.91,WSW,255,5.0,8.0,54,0.00,,CLR,0.00,VWS V14.01,2013-01-19 19:09:00,
2013-01-19 14:15:00,46.7,31.0,29.91,West,265,3.0,8.0,54,0.00,,CLR,0.00,VWS V14.01,2013-01-19 19:15:00,
2013-01-19 14:20:00,47.1,30.9,29.90,West,265,4.0,8.0,53,0.00,,CLR,0.00,VWS V14.01,2013-01-19 19:20:00,
2013-01-19 14:25:00,47.4,30.7,29.90,West,271,2.0,12.0,52,0.00,,CLR,0.00,VWS V14.01,2013-01-19 19:25:00,
2013-01-19 14:30:00,47.8,31.0,29.90,West,263,4.0,12.0,52,0.00,,CLR,0.00,VWS V14.01,2013-01-19 19:30:00,
2013-01-19 14:35:00,47.7,31.0,29.90,WSW,245,6.0,8.0,52,0.00,,CLR,0.00,VWS V14.01,2013-01-19 19:35:00,
2013-01-19 14:40:00,47.6,31.8,29.90,WSW,248,5.0,9.0,54,0.00,,CLR,0.00,VWS V14.01,2013-01-19 19:40:00,
2013-01-19 14:46:00,47.5,31.2,29.90,West,268,6.0,10.0,53,0.00,,CLR,0.00,VWS V14.01,2013-01-19 19:46:00,
2013-01-19 14:51:00,47.5,31.7,29.90,WSW,250,3.0,10.0,54,0.00,,CLR,0.00,VWS V14.01,2013-01-19 19:51:00,
2013-01-19 14:57:00,47.5,31.2,29.89,West,263,3.0,10.0,53,0.00,,CLR,0.00,VWS V14.01,2013-01-19 19:57:00,
2013-01-19 15:02:00,47.5,30.8,29.89,WSW,245,3.0,10.0,52,0.00,,CLR,0.00,VWS V14.01,2013-01-19 20:02:00,
2013-01-19 15:07:00,47.5,31.7,29.89,SW,225,3.0,5.0,54,0.00,,CLR,0.00,VWS V14.01,2013-01-19 20:07:00,
2013-01-19 15:13:00,47.4,31.1,29.89,WSW,242,3.0,5.0,53,0.00,,CLR,0.00,VWS V14.01,2013-01-19 20:13:00,
2013-01-19 15:18:00,47.4,30.7,29.89,SW,225,3.0,5.0,52,0.00,,CLR,0.00,VWS V14.01,2013-01-19 20:18:00,
2013-01-19 15:23:00,47.4,31.1,29.88,WSW,255,2.0,5.0,53,0.00,,CLR,0.00,VWS V14.01,2013-01-19 20:23:00,
2013-01-19 15:28:00,47.4,31.1,29.88,West,263,1.0,5.0,53,0.00,,CLR,0.00,VWS V14.01,2013-01-19 20:28:00,
2013-01-19 15:34:00,47.3,31.5,29.88,WSW,253,2.0,3.0,54,0.00,,CLR,0.00,VWS V14.01,2013-01-19 20:34:00,
2013-01-19 15:39:00,47.4,31.6,29.88,WSW,253,3.0,6.0,54,0.00,,CLR,0.00,VWS V14.01,2013-01-19 20:39:00,
2013-01-19 15:45:00,47.4,31.1,29.88,SW,226,3.0,6.0,53,0.00,,CLR,0.00,VWS V14.01,2013-01-19 20:45:00,
2013-01-19 15:50:00,47.5,31.2,29.87,WSW,246,5.0,6.0,53,0.00,,CLR,0.00,VWS V14.01,2013-01-19 20:50:00,
2013-01-19 15:55:00,47.4,31.1,29.87,WSW,248,3.0,6.0,53,0.00,,CLR,0.00,VWS V14.01,2013-01-19 20:55:00,
2013-01-19 16:00:00,47.3,30.6,29.87,West,266,2.0,6.0,52,0.00,,CLR,0.00,VWS V14.01,2013-01-19 21:00:00,
2013-01-19 16:05:00,47.2,30.5,29.87,SW,236,7.0,8.0,52,0.00,,OVC065,0.00,VWS V14.01,2013-01-19 21:05:00,
2013-01-19 16:10:00,47.1,30.4,29.87,WSW,239,7.0,8.0,52,0.00,,OVC065,0.00,VWS V14.01,2013-01-19 21:10:00,
2013-01-19 16:15:00,47.0,29.8,29.86,SW,230,5.0,8.0,51,0.00,,OVC065,0.00,VWS V14.01,2013-01-19 21:15:00,
2013-01-19 16:22:00,46.9,30.2,29.86,SW,230,5.0,9.0,52,0.00,,OVC065,0.00,VWS V14.01,2013-01-19 21:22:00,
2013-01-19 16:28:00,46.8,30.1,29.86,WSW,242,8.0,9.0,52,0.00,,OVC065,0.00,VWS V14.01,2013-01-19 21:28:00,
2013-01-19 16:34:00,46.8,29.6,29.86,WSW,238,6.0,6.0,51,0.00,,OVC065,0.00,VWS V14.01,2013-01-19 21:34:00,
2013-01-19 16:40:00,46.6,29.9,29.85,WSW,243,4.0,6.0,52,0.00,,OVC065,0.00,VWS V14.01,2013-01-19 21:40:00,
2013-01-19 16:45:00,46.4,29.8,29.85,WSW,240,3.0,6.0,52,0.00,,FEW065,0.00,VWS V14.01,2013-01-19 21:45:00,
2013-01-19 16:50:00,46.3,29.6,29.85,WSW,249,5.0,6.0,52,0.00,,FEW065,0.00,VWS V14.01,2013-01-19 21:50:00,
2013-01-19 16:56:00,46.3,30.1,29.85,WSW,244,4.0,6.0,53,0.00,,FEW065,0.00,VWS V14.01,2013-01-19 21:56:00,
2013-01-19 17:02:00,46.2,29.6,29.85,SW,228,4.0,6.0,52,0.00,,FEW065,0.00,VWS V14.01,2013-01-19 22:02:00,
2013-01-19 17:08:00,46.1,30.4,29.84,SW,229,3.0,5.0,54,0.00,,FEW065,0.00,VWS V14.01,2013-01-19 22:08:00,
2013-01-19 17:13:00,45.9,29.8,29.84,WSW,245,2.0,5.0,53,0.00,,FEW065,0.00,VWS V14.01,2013-01-19 22:13:00,
2013-01-19 17:18:00,45.7,29.6,29.84,WSW,243,0.0,5.0,53,0.00,,FEW065,0.00,VWS V14.01,2013-01-19 22:18:00,
2013-01-19 17:23:00,45.7,30.0,29.84,SW,222,2.0,5.0,54,0.00,,FEW065,0.00,VWS V14.01,2013-01-19 22:23:00,
2013-01-19 17:28:00,45.6,29.9,29.83,SW,222,3.0,5.0,54,0.00,,FEW065,0.00,VWS V14.01,2013-01-19 22:28:00,
2013-01-19 17:34:00,45.7,30.5,29.83,SSW,203,2.0,3.0,55,0.00,,FEW065,0.00,VWS V14.01,2013-01-19 22:34:00,
2013-01-19 17:39:00,45.5,30.3,29.83,SW,236,4.0,4.0,55,0.00,,FEW065,0.00,VWS V14.01,2013-01-19 22:39:00,
2013-01-19 17:44:00,45.7,30.0,29.83,SW,225,4.0,6.0,54,0.00,,FEW065,0.00,VWS V14.01,2013-01-19 22:44:00,
2013-01-19 17:49:00,45.9,30.2,29.82,SW,231,6.0,7.0,54,0.00,,CLR,0.00,VWS V14.01,2013-01-19 22:49:00,
2013-01-19 17:55:00,45.8,29.7,29.82,SW,229,4.0,7.0,53,0.00,,CLR,0.00,VWS V14.01,2013-01-19 22:55:00,
2013-01-19 18:00:00,45.8,29.7,29.81,SSW,203,2.0,7.0,53,0.00,,CLR,0.00,VWS V14.01,2013-01-19 23:00:00,
2013-01-19 18:06:00,45.7,30.0,29.81,SSW,209,3.0,5.0,54,0.00,,CLR,0.00,VWS V14.01,2013-01-19 23:06:00,
2013-01-19 18:11:00,45.5,29.8,29.81,SSW,200,1.0,5.0,54,0.00,,CLR,0.00,VWS V14.01,2013-01-19 23:11:00,
2013-01-19 18:17:00,45.1,29.9,29.81,SW,225,2.0,5.0,55,0.00,,CLR,0.00,VWS V14.01,2013-01-19 23:17:00,
2013-01-19 18:22:00,44.9,29.7,29.80,South,190,3.0,5.0,55,0.00,,CLR,0.00,VWS V14.01,2013-01-19 23:22:00,
2013-01-19 18:28:00,45.0,29.4,29.80,SW,219,4.0,6.0,54,0.00,,CLR,0.00,VWS V14.01,2013-01-19 23:28:00,
2013-01-19 18:33:00,45.0,29.8,29.80,SSW,209,2.0,4.0,55,0.00,,CLR,0.00,VWS V14.01,2013-01-19 23:33:00,
2013-01-19 18:38:00,45.0,29.4,29.79,SSW,208,3.0,4.0,54,0.00,,CLR,0.00,VWS V14.01,2013-01-19 23:38:00,
2013-01-19 18:43:00,45.1,29.5,29.79,SW,215,4.0,6.0,54,0.00,,CLR,0.00,VWS V14.01,2013-01-19 23:43:00,
2013-01-19 18:48:00,45.4,28.8,29.78,WSW,239,5.0,8.0,52,0.00,,SCT070,0.00,VWS V14.01,2013-01-19 23:48:00,
2013-01-19 18:53:00,45.6,28.0,29.78,SW,219,7.0,9.0,50,0.00,,SCT070,0.00,VWS V14.01,2013-01-19 23:53:00,
2013-01-19 18:59:00,45.8,28.7,29.78,SW,236,6.0,9.0,51,0.00,,SCT070,0.00,VWS V14.01,2013-01-19 23:59:00,
2013-01-19 19:04:00,46.2,28.1,29.78,WSW,252,3.0,6.0,49,0.00,,SCT070,0.00,VWS V14.01,2013-01-20 00:04:00,
2013-01-19 19:09:00,46.6,27.5,29.77,WSW,241,8.0,12.0,47,0.00,,SCT070,0.00,VWS V14.01,2013-01-20 00:09:00,
2013-01-19 19:14:00,46.8,27.1,29.77,WSW,255,5.0,12.0,46,0.00,,BKN090,0.00,VWS V14.01,2013-01-20 00:14:00,
2013-01-19 19:19:00,46.9,27.2,29.77,WNW,283,3.0,12.0,46,0.00,,BKN090,0.00,VWS V14.01,2013-01-20 00:19:00,
2013-01-19 19:25:00,46.9,26.7,29.77,WSW,252,5.0,12.0,45,0.00,,BKN090,0.00,VWS V14.01,2013-01-20 00:25:00,
2013-01-19 19:30:00,47.0,26.2,29.77,West,264,3.0,12.0,44,0.00,,BKN090,0.00,VWS V14.01,2013-01-20 00:30:00,
2013-01-19 19:35:00,46.8,26.6,29.76,WSW,242,4.0,4.0,45,0.00,,BKN090,0.00,VWS V14.01,2013-01-20 00:35:00,
2013-01-19 19:40:00,47.0,26.2,29.76,West,262,3.0,9.0,44,0.00,,BKN090,0.00,VWS V14.01,2013-01-20 00:40:00,
2013-01-19 19:45:00,46.8,25.5,29.77,SW,225,3.0,9.0,43,0.00,,BKN090,0.00,VWS V14.01,2013-01-20 00:45:00,
2013-01-19 19:51:00,47.0,25.7,29.76,WSW,242,3.0,9.0,43,0.00,,BKN090,0.00,VWS V14.01,2013-01-20 00:51:00,
2013-01-19 19:56:00,47.0,25.1,29.76,WSW,238,6.0,11.0,42,0.00,,BKN090,0.00,VWS V14.01,2013-01-20 00:56:00,
2013-01-19 20:01:00,46.9,25.0,29.76,WSW,242,5.0,11.0,42,0.00,,BKN090,0.00,VWS V14.01,2013-01-20 01:01:00,
2013-01-19 20:07:00,46.9,24.5,29.75,West,259,6.0,11.0,41,0.00,,BKN090,0.00,VWS V14.01,2013-01-20 01:07:00,
2013-01-19 20:12:00,47.0,25.1,29.75,SW,233,7.0,11.0,42,0.00,,BKN090,0.00,VWS V14.01,2013-01-20 01:12:00,
2013-01-19 20:17:00,47.1,25.2,29.75,WSW,243,5.0,11.0,42,0.00,,BKN090,0.00,VWS V14.01,2013-01-20 01:17:00,
2013-01-19 20:22:00,47.0,25.1,29.75,WSW,248,8.0,12.0,42,0.00,,BKN090,0.00,VWS V14.01,2013-01-20 01:22:00,
2013-01-19 20:27:00,46.9,25.0,29.75,WSW,248,5.0,12.0,42,0.00,,BKN090,0.00,VWS V14.01,2013-01-20 01:27:00,
2013-01-19 20:32:00,46.9,25.0,29.75,WSW,239,7.0,12.0,42,0.00,,BKN090,0.00,VWS V14.01,2013-01-20 01:32:00,
2013-01-19 20:37:00,46.9,24.5,29.75,WSW,239,6.0,7.0,41,0.00,,BKN090,0.00,VWS V14.01,2013-01-20 01:37:00,
2013-01-19 20:42:00,47.0,24.5,29.74,SW,232,8.0,12.0,41,0.00,,BKN090,0.00,VWS V14.01,2013-01-20 01:42:00,
2013-01-19 20:48:00,47.1,24.0,29.74,WSW,245,7.0,12.0,40,0.00,,SCT095,0.00,VWS V14.01,2013-01-20 01:48:00,
2013-01-19 20:53:00,47.2,24.7,29.74,WSW,239,6.0,12.0,41,0.00,,SCT095,0.00,VWS V14.01,2013-01-20 01:53:00,
2013-01-19 20:58:00,47.3,24.2,29.74,WSW,254,7.0,12.0,40,0.00,,SCT095,0.00,VWS V14.01,2013-01-20 01:58:00,
2013-01-19 21:03:00,47.5,25.0,29.74,WSW,239,6.0,7.0,41,0.00,,SCT095,0.00,VWS V14.01,2013-01-20 02:03:00,
2013-01-19 21:08:00,47.4,25.5,29.73,WSW,242,7.0,12.0,42,0.00,,SCT095,0.00,VWS V14.01,2013-01-20 02:08:00,
2013-01-19 21:14:00,47.5,25.0,29.73,SW,232,10.0,12.0,41,0.00,,SCT095,0.00,VWS V14.01,2013-01-20 02:14:00,
2013-01-19 21:19:00,47.8,24.7,29.73,SW,231,9.0,13.0,40,0.00,,SCT095,0.00,VWS V14.01,2013-01-20 02:19:00,
2013-01-19 21:24:00,47.9,24.8,29.73,WSW,248,6.0,13.0,40,0.00,,SCT095,0.00,VWS V14.01,2013-01-20 02:24:00,
2013-01-19 21:29:00,47.8,25.3,29.73,SW,235,8.0,13.0,41,0.00,,SCT095,0.00,VWS V14.01,2013-01-20 02:29:00,
2013-01-19 21:34:00,47.9,24.8,29.72,WSW,245,6.0,11.0,40,0.00,,SCT095,0.00,VWS V14.01,2013-01-20 02:34:00,
2013-01-19 21:39:00,47.9,24.1,29.72,SW,236,10.0,13.0,39,0.00,,SCT095,0.00,VWS V14.01,2013-01-20 02:39:00,
2013-01-19 21:44:00,48.0,25.4,29.72,WSW,242,6.0,13.0,41,0.00,,CLR,0.00,VWS V14.01,2013-01-20 02:44:00,
2013-01-19 21:49:00,47.9,25.4,29.72,WSW,239,7.0,13.0,41,0.00,,CLR,0.00,VWS V14.01,2013-01-20 02:49:00,
2013-01-19 21:54:00,48.0,25.4,29.71,SW,233,10.0,13.0,41,0.00,,CLR,0.00,VWS V14.01,2013-01-20 02:54:00,
2013-01-19 22:00:00,48.0,25.4,29.71,WSW,240,9.0,13.0,41,0.00,,CLR,0.00,VWS V14.01,2013-01-20 03:00:00,
2013-01-19 22:05:00,48.0,25.4,29.71,WSW,248,6.0,12.0,41,0.00,,CLR,0.00,VWS V14.01,2013-01-20 03:05:00,
2013-01-19 22:10:00,48.1,25.5,29.70,WSW,257,6.0,12.0,41,0.00,,CLR,0.00,VWS V14.01,2013-01-20 03:10:00,
2013-01-19 22:15:00,48.1,24.9,29.70,West,262,6.0,12.0,40,0.00,,CLR,0.00,VWS V14.01,2013-01-20 03:15:00,
2013-01-19 22:21:00,48.2,25.6,29.70,WSW,257,7.0,15.0,41,0.00,,CLR,0.00,VWS V14.01,2013-01-20 03:21:00,
2013-01-19 22:25:00,48.5,25.9,29.70,West,263,8.0,15.0,41,0.00,,CLR,0.00,VWS V14.01,2013-01-20 03:25:00,
2013-01-19 22:31:00,48.5,25.9,29.70,West,270,5.0,15.0,41,0.00,,CLR,0.00,VWS V14.01,2013-01-20 03:31:00,
2013-01-19 22:36:00,48.6,26.0,29.70,WSW,257,7.0,17.0,41,0.00,,CLR,0.00,VWS V14.01,2013-01-20 03:36:00,
2013-01-19 22:41:00,48.5,25.9,29.70,WSW,242,11.0,17.0,41,0.00,,CLR,0.00,VWS V14.01,2013-01-20 03:41:00,
2013-01-19 22:46:00,48.3,26.3,29.69,WSW,250,8.0,17.0,42,0.00,,OVC070,0.00,VWS V14.01,2013-01-20 03:46:00,
2013-01-19 22:52:00,48.4,25.8,29.69,West,263,9.0,17.0,41,0.00,,OVC070,0.00,VWS V14.01,2013-01-20 03:52:00,
2013-01-19 22:57:00,48.7,26.1,29.69,West,266,7.0,18.0,41,0.00,,OVC070,0.00,VWS V14.01,2013-01-20 03:57:00,
2013-01-19 23:02:00,48.6,25.4,29.69,West,262,6.0,18.0,40,0.00,,OVC070,0.00,VWS V14.01,2013-01-20 04:02:00,
2013-01-19 23:08:00,48.3,25.7,29.68,WSW,244,7.0,14.0,41,0.00,,OVC070,0.00,VWS V14.01,2013-01-20 04:08:00,
2013-01-19 23:13:00,48.1,26.1,29.68,WSW,250,7.0,14.0,42,0.00,,OVC070,0.00,VWS V14.01,2013-01-20 04:13:00,
2013-01-19 23:19:00,48.0,26.0,29.67,WSW,253,9.0,14.0,42,0.00,,OVC070,0.00,VWS V14.01,2013-01-20 04:19:00,
2013-01-19 23:24:00,47.8,25.8,29.67,WSW,255,6.0,14.0,42,0.00,,OVC070,0.00,VWS V14.01,2013-01-20 04:24:00,
2013-01-19 23:29:00,47.7,25.8,29.67,WSW,255,5.0,14.0,42,0.00,,OVC070,0.00,VWS V14.01,2013-01-20 04:29:00,
2013-01-19 23:34:00,47.5,26.7,29.66,WSW,250,7.0,10.0,44,0.00,,OVC070,0.00,VWS V14.01,2013-01-20 04:34:00,
2013-01-19 23:40:00,47.4,26.6,29.66,WSW,239,8.0,10.0,44,0.00,,OVC070,0.00,VWS V14.01,2013-01-20 04:40:00,
2013-01-19 23:45:00,47.4,26.0,29.66,WSW,252,9.0,11.0,43,0.00,,FEW120,0.00,VWS V14.01,2013-01-20 04:45:00,
2013-01-19 23:50:00,47.2,26.4,29.65,SW,228,6.0,11.0,44,0.00,,FEW120,0.00,VWS V14.01,2013-01-20 04:50:00,
2013-01-19 23:55:00,46.9,26.1,29.65,WSW,242,9.0,11.0,44,0.00,,FEW120,0.00,VWS V14.01,2013-01-20 04:55:00,